Location: Ebersheim
(48.3033°N, 7.4991°E)
Time: 19:28:50
(UTC+00:00)

STARLINK-1042 - Pass Details

Date: 27 February 2020
Orbit: 548 x 551 km, 53.0° (Epoch: 30 March)

Event Time Altitude Azimuth Distance (km) Brightness Sun altitude
Rises 18:57:33 0° 245° (WSW) 2,710 8.1 -18.6°
Reaches altitude 10° 18:59:47 10° 246° (WSW) 1,819 7.1 -19.0°
Maximum altitude 19:03:55 82° 336° (NNW) 559 3.6 -19.7°
Enters shadow 19:05:03 47° 56° (ENE) 732 3.9 -19.8°
